FW7110 Weather Reports


time (UTC)temp
C
wind
direction
speed
KPH
gust
KPH
rain 1hr
cm
rain 24hr
cm
rain mn
cm
humidity
%
barometer
mb
20260906123059 21 97 3.2 12.9 0.00 0.00 0.00 94 1019.0
20260906121606 21 75 1.6 4.8 0.00 0.00 0.00 94 1018.8
20260906120059 21 63 1.6 6.4 0.00 0.00 0.00 95 1018.4
20260906114601 21 103 1.6 6.4 0.00 0.00 0.00 95 1018.3
20260906113104 21 60 1.6 6.4 0.00 0.00 0.00 95 1017.9
20260906111617 21 84 3.2 8.0 0.00 0.00 0.00 94 1017.6
20260906110058 21 46 0.0 6.4 0.00 0.00 0.00 94 1017.7
20260906104601 21 61 3.2 9.7 0.00 0.00 0.00 94 1017.6
20260906103104 21 96 1.6 6.4 0.00 0.00 0.00 94 1017.3
20260906101604 21 0 3.2 8.0 0.00 0.00 0.00 94 1017.3
20260906100058 21 25 1.6 9.7 0.00 0.00 0.00 93 1017.1
20260906094603 21 71 1.6 6.4 0.00 0.00 0.00 93 1017.3
20260906093103 21 18 1.6 6.4 0.00 0.00 0.00 93 1017.1
20260906091605 21 94 1.6 4.8 0.00 0.00 0.00 93 1017.1
20260906084601 21 74 0.0 3.2 0.00 0.00 0.00 94 1017.4
20260906083100 21 51 0.0 4.8 0.00 0.00 0.00 94 1017.4
20260906081600 21 4 0.0 4.8 0.00 0.00 0.00 94 1017.6
20260906080103 21 0 0.0 3.2 0.00 0.00 0.00 94 1017.4
20260906074608 21 0 0.0 3.2 0.00 0.00 0.00 94 1017.5
20260906073059 21 46 0.0 3.2 0.00 0.00 0.00 94 1017.5
20260906071602 20 99 0.0 1.6 0.00 0.00 0.00 94 1017.8
20260906070103 20 358 0.0 1.6 0.00 0.00 0.00 94 1017.6
20260906064557 21 358 0.0 4.8 0.00 0.00 0.00 94 1017.6
20260906063101 21 327 1.6 4.8 0.00 0.00 0.00 93 1017.5
20260906061604 21 13 0.0 3.2 0.00 0.00 0.00 93 1017.9
20260906060105 21 62 1.6 4.8 0.00 0.00 0.00 93 1017.9
20260906054605 21 54 1.6 4.8 0.00 0.00 0.00 93 1018.0
20260906053103 21 89 1.6 4.8 0.00 0.00 0.00 93 1017.9
20260906051613 21 99 1.6 6.4 0.00 0.00 0.00 92 1017.8
20260906050104 21 93 1.6 6.4 0.00 0.00 0.00 92 1017.5
20260906044607 21 71 1.6 8.0 0.00 0.00 0.00 92 1017.1
20260906043100 22 69 1.6 8.0 0.00 0.00 0.00 91 1017.0
20260906041601 22 21 0.0 4.8 0.00 0.00 0.00 91 1016.6
20260906040137 22 103 1.6 8.0 0.00 0.00 0.00 91 1016.5
20260906034611 22 99 0.0 4.8 0.00 0.00 0.00 91 1016.4
20260906033108 22 70 0.0 4.8 0.00 0.00 0.00 92 1016.3
20260906031600 22 63 1.6 3.2 0.00 0.00 0.00 92 1016.1
20260906030105 22 0 0.0 3.2 0.00 0.00 0.00 91 1016.1
20260906024613 22 98 0.0 4.8 0.00 0.00 0.00 91 1016.1
20260906023105 23 41 0.0 6.4 0.00 0.00 0.00 90 1015.9
20260906021603 23 60 1.6 3.2 0.00 0.00 0.00 90 1015.9
20260906014600 24 122 0.0 3.2 0.00 0.00 0.00 88 1015.7
20260906013114 25 37 0.0 6.4 0.00 0.00 0.00 87 1015.4
20260906011605 25 27 1.6 9.7 0.00 0.00 0.00 85 1015.4
20260906010104 25 40 3.2 12.9 0.00 0.00 0.00 84 1015.3
20260906004607 26 119 3.2 11.3 0.00 0.00 0.00 82 1015.2
20260906003104 26 357 4.8 14.5 0.00 0.00 0.00 80 1015.0
20260906001610 27 49 3.2 11.3 0.00 0.00 0.00 78 1014.9
20260905234604 28 15 1.6 9.7 0.00 0.00 0.00 76 1015.0
20260905233104 29 25 1.6 9.7 0.00 0.00 0.00 76 1014.7
20260905231608 30 30 3.2 9.7 0.00 0.00 0.00 75 1014.5
20260905230108 30 331 4.8 11.3 0.00 0.00 0.00 74 1014.3
20260905224617 31 68 4.8 14.5 0.00 0.00 0.00 72 1014.5
20260905223116 31 92 3.2 11.3 0.00 0.00 0.00 70 1014.3
20260905221605 32 334 3.2 6.4 0.00 0.00 0.00 69 1014.4
20260905220105 32 195 4.8 11.3 0.00 0.00 0.00 66 1014.2
20260905214603 32 56 3.2 11.3 0.00 0.00 0.00 67 1014.3
20260905213105 32 31 3.2 8.0 0.00 0.00 0.00 65 1014.1
20260905211613 32 52 3.2 9.7 0.00 0.00 0.00 65 1014.2
20260905210107 32 50 1.6 9.7 0.00 0.00 0.00 66 1014.2
20260905204603 32 80 3.2 8.0 0.00 0.00 0.00 65 1014.3
20260905203103 33 68 3.2 9.7 0.00 0.00 0.00 65 1014.5
20260905201602 32 65 1.6 4.8 0.00 0.00 0.00 68 1014.5
20260905200105 32 72 1.6 6.4 0.00 0.00 0.00 67 1014.7
20260905194557 32 23 1.6 6.4 0.00 0.00 0.00 67 1014.6
20260905193107 32 109 3.2 4.8 0.00 0.00 0.00 67 1014.6
20260905191608 32 88 1.6 8.0 0.00 0.00 0.00 67 1014.8
20260905190106 32 11 3.2 8.0 0.00 0.00 0.00 66 1014.9
20260905184607 33 64 1.6 6.4 0.00 0.00 0.00 66 1015.1
20260905183106 33 30 3.2 9.7 0.00 0.00 0.00 65 1015.1
20260905181604 33 64 1.6 6.4 0.00 0.00 0.00 65 1015.2
20260905180108 33 51 3.2 8.0 0.00 0.00 0.00 67 1015.2
20260905174606 32 98 1.6 8.0 0.00 0.00 0.00 67 1015.3
20260905173130 32 46 3.2 6.4 0.00 0.00 0.00 66 1015.4
20260905171609 33 84 1.6 8.0 0.00 0.00 0.00 68 1015.5
20260905170115 33 126 1.6 6.4 0.00 0.00 0.00 66 1015.7
20260905164609 32 86 3.2 6.4 0.00 0.00 0.00 68 1015.7
20260905163127 32 75 3.2 6.4 0.00 0.00 0.00 68 1015.8
20260905161616 32 313 3.2 6.4 0.00 0.00 0.00 70 1015.9
20260905160106 32 89 3.2 6.4 0.00 0.00 0.00 68 1015.8
20260905154616 32 23 1.6 6.4 0.00 0.00 0.00 70 1015.7
20260905153105 32 60 1.6 4.8 0.00 0.00 0.00 67 1015.5
20260905151603 31 40 1.6 4.8 0.00 0.00 0.00 69 1015.5
20260905150110 31 25 1.6 6.4 0.00 0.00 0.00 66 1015.4
20260905144602 31 92 1.6 6.4 0.00 0.00 0.00 66 1015.3
20260905143109 31 42 1.6 6.4 0.00 0.00 0.00 68 1015.1
20260905141606 31 240 1.6 6.4 0.00 0.00 0.00 67 1014.9
20260905140110 31 32 1.6 6.4 0.00 0.00 0.00 66 1015.0
20260905134602 30 262 0.0 1.6 0.00 0.00 0.00 72 1014.9
20260905133106 30 0 0.0 6.4 0.00 0.00 0.00 71 1014.7
20260905131603 29 237 0.0 3.2 0.00 0.00 0.00 75 1014.9
20260905130104 28 257 0.0 3.2 0.00 0.00 0.00 80 1014.9
20260905124558 27 0 0.0 1.6 0.00 0.00 0.00 84 1014.5